ギルモア彗星

P/2007 Q2 ( Gilmore )

English version
Home page
Total 6,336 html files since Dec. 4, 1995
Updated on December 30, 2007

---------------------------------------------------------------------

・ プロフィール

発見日 2007年8月22日
発見光度 19.1等
発見者 Alan C. Gilmore (Mount John University Observatory)

・ 写真集

・ 軌道要素

Epoch 2007 Aug. 8.0 TT = JDT 2454320.5
T 2007 Aug. 23.87738 TT                                 MPC
q   1.8390170            (2000.0)            P               Q
n   0.07449956     Peri.  163.14832     +0.90984005     +0.41426614
a   5.5937139      Node   172.24912     -0.39826734     +0.88800310
e   0.6712351      Incl.   10.23841     -0.11650839     +0.19958473
P  13.23

・ 光度変化

        m1 = 16.5 + 5 logΔ + 10.0 log r

---------------------------------------------------------------------

軌道要素はM.P.E.C. 2007-U58に掲載されたものです。
光度グラフはComet for Windowsで作成したものです。

---------------------------------------------------------------------

Copyright(C) 1995-2008 Seiichi Yoshida (comet@aerith.net). All rights reserved.